Search for airport 
image banner adimage banner adimage banner ad
image banner ad

CYHI - Holman

Located in Ulukhaktok, Canada

ICAO - CYHI, IATA - YHI

Data provided by Airmate  

General information

Coordinates: N70°45'46" W117°48'22"
Elevation is 118 feet MSL.
Magnetic variation is 18.2726° East
View others Airports in Northwest Territories

Operational data

Special qualification required
Current time UTC:
Current local time:
Weather
METAR: CYHI 062300Z 11018KT 15SM DRSN SCT070 M20/M24 A2972 RMK AS3 SLP073
TAF: TAF CYHI 061840Z 0619/0701 06012KT P6SM FEW070 BECMG 0622/0624 10015G25KT RMK NXT FCST BY 071700Z
View NOTAMs / SUP AIP / TFR affecting this airport [VIEW]
Communications frequencies: [VIEW]

Runways:

RWY identifierQFULength (ft)Width (ft)SurfaceLDA (ft)
0662°430099GRAVE4300
24242°430099GRAVE4300

Airport contact information

Address: Ulukhaktok Canada

Satellite view of CYHI